Radiation Dose at Monitoring Post of Fukushima Daini Nuclear Power Station
Date,Time,MP-1(microSv/h),MP-2(microSv/h),MP-3(microSv/h),MP-4(microSv/h),MP-5(microSv/h),MP-6(microSv/h),MP-7(microSv/h),Wind Direction,Wind Velocity(m/s),Rain
2021/04/04,00:00,0.172,0.154,0.253,0.240,0.235,0.134,0.082,south-southwest,5.9,No
2021/04/04,00:10,0.170,0.154,0.254,0.239,0.237,0.134,0.083,south-southwest,5.3,No
2021/04/04,00:20,0.172,0.153,0.253,0.239,0.236,0.134,0.084,south-southwest,7.1,No
2021/04/04,00:30,0.172,0.154,0.254,0.240,0.235,0.134,0.083,south-southwest,7.8,No
2021/04/04,00:40,0.172,0.154,0.252,0.238,0.237,0.134,0.083,south-southwest,8.5,No
2021/04/04,00:50,0.172,0.153,0.253,0.241,0.235,0.134,0.083,south-southwest,8.8,No
2021/04/04,01:00,0.171,0.153,0.254,0.240,0.238,0.134,0.082,south-southwest,7.9,No
2021/04/04,01:10,0.172,0.154,0.253,0.240,0.236,0.134,0.083,south-southwest,7.9,No
2021/04/04,01:20,0.171,0.154,0.254,0.240,0.237,0.135,0.083,south-southwest,7.9,No
2021/04/04,01:30,0.172,0.154,0.254,0.239,0.236,0.133,0.083,south-southwest,7.6,No
2021/04/04,01:40,0.172,0.153,0.252,0.240,0.236,0.134,0.084,south-southwest,7.1,No
2021/04/04,01:50,0.172,0.153,0.253,0.240,0.237,0.134,0.083,south,7.0,No
2021/04/04,02:00,0.173,0.155,0.253,0.240,0.236,0.134,0.083,south-southwest,7.5,No
2021/04/04,02:10,0.171,0.153,0.252,0.239,0.237,0.134,0.083,south,7.5,No
2021/04/04,02:20,0.172,0.153,0.253,0.239,0.236,0.134,0.083,south-southwest,7.0,No
2021/04/04,02:30,0.172,0.154,0.253,0.239,0.237,0.134,0.083,south-southwest,5.7,No
2021/04/04,02:40,0.171,0.153,0.252,0.239,0.235,0.134,0.082,south-southwest,5.5,No
2021/04/04,02:50,0.171,0.154,0.252,0.239,0.237,0.135,0.083,south,4.9,No
2021/04/04,03:00,0.172,0.153,0.253,0.238,0.235,0.134,0.083,south,5.7,No
2021/04/04,03:10,0.173,0.153,0.253,0.240,0.237,0.135,0.083,south,7.0,No
2021/04/04,03:20,0.171,0.154,0.252,0.238,0.235,0.134,0.083,south,6.3,No
2021/04/04,03:30,0.173,0.154,0.253,0.238,0.236,0.134,0.083,south-southwest,6.8,No
2021/04/04,03:40,0.171,0.154,0.253,0.241,0.236,0.135,0.082,south,6.7,No
2021/04/04,03:50,0.173,0.154,0.252,0.239,0.236,0.134,0.083,south,6.4,No
2021/04/04,04:00,0.172,0.154,0.254,0.240,0.236,0.135,0.083,south,6.6,No
2021/04/04,04:10,0.171,0.153,0.252,0.238,0.235,0.134,0.082,south-southwest,7.0,No
2021/04/04,04:20,0.172,0.152,0.253,0.239,0.237,0.135,0.083,south-southwest,7.0,No
2021/04/04,04:30,0.172,0.152,0.253,0.240,0.235,0.133,0.083,south-southwest,7.0,No
2021/04/04,04:40,0.173,0.153,0.253,0.239,0.238,0.135,0.083,south,7.2,No
2021/04/04,04:50,0.171,0.154,0.253,0.240,0.235,0.135,0.083,south,7.7,No
2021/04/04,05:00,0.173,0.153,0.253,0.239,0.237,0.134,0.083,south,7.2,No
2021/04/04,05:10,0.171,0.153,0.253,0.240,0.236,0.134,0.085,south,7.6,No
2021/04/04,05:20,0.172,0.153,0.253,0.240,0.237,0.134,0.084,south,8.5,No
2021/04/04,05:30,0.171,0.153,0.252,0.239,0.236,0.135,0.083,south-southwest,8.3,No
2021/04/04,05:40,0.173,0.154,0.253,0.240,0.237,0.134,0.083,south,8.2,No
2021/04/04,05:50,0.172,0.154,0.253,0.238,0.237,0.135,0.083,south,8.6,No
2021/04/04,06:00,0.171,0.154,0.254,0.240,0.236,0.135,0.083,south,7.7,No
2021/04/04,06:10,0.172,0.153,0.252,0.240,0.237,0.134,0.083,south-southwest,8.1,No
2021/04/04,06:20,0.172,0.154,0.253,0.240,0.236,0.133,0.082,south,7.6,No
2021/04/04,06:30,0.172,0.153,0.252,0.239,0.238,0.135,0.083,south,7.2,No
2021/04/04,06:40,0.171,0.154,0.252,0.238,0.236,0.134,0.083,south,6.6,No
2021/04/04,06:50,0.173,0.153,0.254,0.240,0.237,0.135,0.082,south-southwest,6.7,No
2021/04/04,07:00,0.171,0.153,0.253,0.238,0.234,0.134,0.083,south-southwest,6.7,No
2021/04/04,07:10,0.171,0.154,0.253,0.239,0.238,0.134,0.082,south-southwest,7.6,No
2021/04/04,07:20,0.172,0.152,0.251,0.238,0.235,0.135,0.082,south-southwest,7.8,No
2021/04/04,07:30,0.173,0.153,0.253,0.238,0.237,0.135,0.083,south,4.5,No
2021/04/04,07:40,0.171,0.152,0.253,0.240,0.235,0.134,0.083,south,6.3,No
2021/04/04,07:50,0.172,0.152,0.249,0.237,0.237,0.135,0.082,south,7.3,No
2021/04/04,08:00,0.171,0.153,0.253,0.240,0.236,0.135,0.084,south,8.2,No
2021/04/04,08:10,0.171,0.152,0.252,0.238,0.233,0.134,0.083,south,8.1,No
2021/04/04,08:20,0.171,0.152,0.250,0.237,0.238,0.134,0.082,south,8.9,No
2021/04/04,08:30,0.172,0.153,0.253,0.240,0.235,0.134,0.082,south,7.9,No
2021/04/04,08:40,0.173,0.153,0.253,0.238,0.237,0.134,0.083,south,8.7,No
2021/04/04,08:50,0.171,0.153,0.251,0.240,0.236,0.134,0.082,south-southwest,8.9,No
2021/04/04,09:00,0.172,0.153,0.253,0.239,0.235,0.134,0.083,south,8.2,No
2021/04/04,09:10,0.171,0.153,0.252,0.240,0.238,0.135,0.083,south-southwest,7.0,No
2021/04/04,09:20,0.171,0.154,0.253,0.240,0.235,0.134,0.082,south,6.6,No
2021/04/04,09:30,0.173,0.153,0.254,0.238,0.235,0.135,0.083,south,6.6,No
2021/04/04,09:40,0.173,0.153,0.252,0.240,0.238,0.134,0.083,south,6.3,No
2021/04/04,09:50,0.171,0.153,0.254,0.240,0.237,0.135,0.083,south,6.6,No
2021/04/04,10:00,0.172,0.154,0.253,0.238,0.235,0.135,0.083,south,7.7,No
2021/04/04,10:10,0.171,0.153,0.250,0.241,0.237,0.134,0.083,south,7.4,No
2021/04/04,10:20,0.171,0.153,0.253,0.238,0.235,0.134,0.084,south,6.6,No
2021/04/04,10:30,0.172,0.152,0.255,0.239,0.235,0.135,0.082,south,7.0,No
2021/04/04,10:40,0.172,0.154,0.252,0.240,0.238,0.134,0.083,south,6.4,No
2021/04/04,10:50,0.170,0.154,0.254,0.238,0.236,0.135,0.083,south,7.8,No
2021/04/04,11:00,0.173,0.153,0.254,0.240,0.235,0.135,0.083,south,7.2,No
2021/04/04,11:10,0.172,0.154,0.252,0.239,0.237,0.135,0.084,south,7.0,No
2021/04/04,11:20,0.171,0.152,0.254,0.241,0.235,0.135,0.083,south-southwest,6.3,No
2021/04/04,11:30,0.173,0.154,0.254,0.239,0.238,0.134,0.082,south,6.8,No
2021/04/04,11:40,0.172,0.153,0.254,0.239,0.237,0.135,0.083,south,6.2,No
2021/04/04,11:50,0.173,0.153,0.254,0.240,0.237,0.135,0.082,south,6.6,No
2021/04/04,12:00,0.173,0.154,0.253,0.238,0.237,0.134,0.083,south,5.8,No
2021/04/04,12:10,0.172,0.153,0.254,0.241,0.235,0.135,0.083,south,4.5,No
2021/04/04,12:20,0.173,0.154,0.251,0.238,0.238,0.134,0.083,south-southeast,6.1,No
2021/04/04,12:30,0.172,0.152,0.255,0.240,0.237,0.135,0.083,south,6.8,No
2021/04/04,12:40,0.172,0.154,0.253,0.239,0.236,0.134,0.083,south-southeast,7.1,No
2021/04/04,12:50,0.172,0.154,0.253,0.238,0.238,0.134,0.083,south,7.8,No
2021/04/04,13:00,0.171,0.154,0.254,0.240,0.235,0.135,0.082,south-southeast,7.8,No
2021/04/04,13:10,0.172,0.154,0.253,0.239,0.238,0.133,0.083,south-southeast,9.5,No
2021/04/04,13:20,0.170,0.152,0.254,0.241,0.235,0.135,0.082,south,9.8,No
2021/04/04,13:30,0.173,0.155,0.252,0.239,0.236,0.134,0.082,south,9.5,No
2021/04/04,13:40,0.172,0.152,0.254,0.239,0.238,0.134,0.083,south-southeast,10.9,No
2021/04/04,13:50,0.172,0.155,0.253,0.237,0.235,0.134,0.083,south-southeast,10.6,Yes
2021/04/04,14:00,0.172,0.154,0.252,0.240,0.238,0.134,0.083,south,10.1,Yes
2021/04/04,14:10,0.171,0.153,0.254,0.239,0.237,0.136,0.083,south-southeast,8.9,Yes
2021/04/04,14:20,0.173,0.154,0.254,0.241,0.237,0.135,0.083,south,8.2,No
2021/04/04,14:30,0.171,0.154,0.255,0.240,0.237,0.135,0.083,south,6.6,No
2021/04/04,14:40,0.172,0.154,0.254,0.241,0.237,0.134,0.083,south,7.1,Yes
2021/04/04,14:50,0.173,0.154,0.255,0.242,0.237,0.135,0.083,south,5.6,Yes
2021/04/04,15:00,0.172,0.154,0.253,0.240,0.237,0.135,0.083,south,4.8,Yes
2021/04/04,15:10,0.174,0.154,0.255,0.241,0.238,0.134,0.083,south,3.8,Yes
2021/04/04,15:20,0.172,0.154,0.253,0.239,0.237,0.136,0.084,south,3.4,Yes
2021/04/04,15:30,0.174,0.154,0.255,0.243,0.240,0.136,0.085,south,3.5,Yes
2021/04/04,15:40,0.173,0.154,0.254,0.240,0.236,0.136,0.086,south,3.2,Yes
2021/04/04,15:50,0.175,0.155,0.256,0.243,0.240,0.137,0.085,south,3.0,Yes
2021/04/04,16:00,0.176,0.156,0.255,0.242,0.238,0.138,0.088,south-southeast,2.5,Yes
2021/04/04,16:10,0.176,0.158,0.259,0.244,0.241,0.139,0.088,southeast,2.7,Yes
2021/04/04,16:20,0.175,0.158,0.256,0.242,0.239,0.140,0.088,south,2.6,Yes
2021/04/04,16:30,0.176,0.158,0.256,0.244,0.241,0.139,0.088,south,2.8,Yes
2021/04/04,16:40,0.176,0.158,0.256,0.243,0.239,0.138,0.088,south-southeast,2.0,Yes
2021/04/04,16:50,0.176,0.158,0.257,0.244,0.239,0.139,0.088,south-southeast,0.7,Yes
2021/04/04,17:00,0.175,0.157,0.256,0.242,0.238,0.139,0.088,south,1.0,Yes
2021/04/04,17:10,0.177,0.158,0.256,0.243,0.240,0.139,0.088,south,2.3,Yes
2021/04/04,17:20,0.176,0.157,0.256,0.242,0.238,0.140,0.088,south-southwest,2.9,Yes
2021/04/04,17:30,0.177,0.158,0.256,0.242,0.241,0.140,0.089,south-southwest,2.2,Yes
2021/04/04,17:40,0.176,0.157,0.255,0.243,0.238,0.139,0.089,south-southwest,1.5,Yes
2021/04/04,17:50,0.175,0.157,0.256,0.242,0.241,0.139,0.089,southwest,1.0,Yes
2021/04/04,18:00,0.176,0.158,0.256,0.242,0.239,0.139,0.088,-,CALM,Yes
2021/04/04,18:10,0.177,0.157,0.254,0.241,0.241,0.139,0.089,south,1.6,Yes
2021/04/04,18:20,0.176,0.157,0.256,0.242,0.238,0.140,0.088,south,2.4,Yes
2021/04/04,18:30,0.176,0.158,0.254,0.242,0.240,0.141,0.088,south,2.2,Yes
2021/04/04,18:40,0.176,0.158,0.255,0.241,0.238,0.139,0.089,south,2.2,Yes
2021/04/04,18:50,0.177,0.157,0.254,0.239,0.239,0.140,0.088,south-southwest,2.6,Yes
2021/04/04,19:00,0.176,0.157,0.254,0.241,0.238,0.140,0.090,south-southwest,3.0,Yes
2021/04/04,19:10,0.175,0.157,0.253,0.238,0.240,0.139,0.089,south-southwest,3.0,Yes
2021/04/04,19:20,0.175,0.157,0.251,0.240,0.238,0.140,0.089,south-southwest,2.3,Yes
2021/04/04,19:30,0.174,0.157,0.253,0.240,0.239,0.139,0.089,south-southwest,2.7,Yes
2021/04/04,19:40,0.175,0.157,0.250,0.239,0.237,0.139,0.089,south-southwest,2.0,Yes
2021/04/04,19:50,0.174,0.156,0.252,0.237,0.237,0.138,0.089,south-southwest,2.4,Yes
2021/04/04,20:00,0.175,0.156,0.251,0.238,0.237,0.138,0.088,south-southwest,1.9,Yes
2021/04/04,20:10,0.174,0.156,0.251,0.238,0.237,0.138,0.088,south,2.6,Yes
2021/04/04,20:20,0.174,0.155,0.251,0.237,0.238,0.138,0.088,south-southwest,3.4,Yes
2021/04/04,20:30,0.175,0.156,0.249,0.238,0.237,0.138,0.088,south-southwest,3.4,Yes
2021/04/04,20:40,0.174,0.155,0.251,0.236,0.237,0.137,0.087,south,3.4,Yes
2021/04/04,20:50,0.172,0.155,0.250,0.239,0.237,0.137,0.087,south-southwest,3.4,Yes
2021/04/04,21:00,0.174,0.155,0.250,0.235,0.238,0.136,0.087,south-southwest,2.8,Yes
2021/04/04,21:10,0.172,0.155,0.250,0.237,0.236,0.137,0.087,south-southwest,2.4,Yes
2021/04/04,21:20,0.174,0.154,0.249,0.236,0.237,0.137,0.087,southwest,2.3,Yes
2021/04/04,21:30,0.172,0.154,0.250,0.237,0.235,0.137,0.086,southwest,2.8,Yes
2021/04/04,21:40,0.173,0.155,0.247,0.236,0.237,0.136,0.087,south-southwest,2.6,Yes
2021/04/04,21:50,0.172,0.154,0.250,0.236,0.234,0.136,0.086,south-southwest,3.2,Yes
2021/04/04,22:00,0.172,0.154,0.248,0.236,0.238,0.136,0.087,south-southwest,2.7,Yes
2021/04/04,22:10,0.172,0.154,0.248,0.235,0.234,0.136,0.086,south-southwest,2.3,Yes
2021/04/04,22:20,0.173,0.154,0.248,0.237,0.238,0.136,0.087,south,2.6,Yes
2021/04/04,22:30,0.174,0.154,0.248,0.237,0.235,0.136,0.086,south,2.5,Yes
2021/04/04,22:40,0.172,0.154,0.249,0.237,0.237,0.137,0.087,south,2.4,Yes
2021/04/04,22:50,0.173,0.154,0.249,0.235,0.236,0.137,0.087,south,3.3,Yes
2021/04/04,23:00,0.173,0.154,0.248,0.237,0.236,0.137,0.086,south-southwest,3.1,Yes
2021/04/04,23:10,0.174,0.153,0.247,0.235,0.236,0.135,0.086,south-southwest,2.5,No
2021/04/04,23:20,0.171,0.154,0.247,0.234,0.236,0.136,0.085,south-southwest,3.4,No
2021/04/04,23:30,0.172,0.153,0.248,0.236,0.235,0.134,0.084,south,3.1,No
2021/04/04,23:40,0.170,0.153,0.245,0.234,0.236,0.134,0.084,south,3.7,No
2021/04/04,23:50,0.171,0.152,0.247,0.233,0.235,0.134,0.083,south,4.2,No
